{"data":{"norad_id":60469,"epoch":"2026-09-22T16:44:15.123264Z","epoch_age_seconds":96268,"freshness":"FRESH","line1":"1 60469U 24149B   26265.69739726  .00010212  00000+0  27399-3 0  9993","line2":"2 60469  97.3631 346.4832 0001074 182.0828 178.0413 15.38150572117096","mean_motion":15.38150572,"eccentricity":0.0001074,"inclination_deg":97.3631,"raan_deg":346.4832,"arg_perigee_deg":182.0828,"mean_anomaly_deg":178.0413,"bstar":0.00027399,"rev_number":11709,"period_min":93.618923024397,"perigee_km":450.84489590525,"apogee_km":452.31191877474,"semimajor_km":6829.71540734,"source":"CELESTRAK","updated_at":"2026-09-23T09:00:20.651313Z"}}